Voltar ao catálogo

STARLINK-2420

AtivoComunicaçõesVLEO
NORAD 47831·PAYLOAD·🇺🇸 United States

Lançado Mar 11, 2021 de Cape Canaveral Space Force Station

Loading…

Próximas Passagens (próximas 24 horas)

TLE

AtualizadoSource: CelesTrak SupGP

Época: Sep 14, 2026, 20:54 UTC

1 47831C 21018AW  26257.87131944  .00019577  00000+0  62966-3 0  2571
2 47831  53.1583  82.2900 0001260  86.0567 218.5849 15.31686555    15

Acompanhe STARLINK-2420 em tempo real com AllMySat

Download on the App Store